| time (UTC) | temp F | wind direction | speed MPH | gust MPH | rain 1hr in | rain 24hr in | rain mn in | humidity % | barometer mb |
| 20260906025408 | 65 | 339 | 0.0 | 2.0 | 0.00 | 0.00 | 0.00 | 48 | 1013.4 |
| 20260906024419 | 65 | 338 | 0.0 | 0.0 | 0.00 | 0.00 | 0.00 | 49 | 1013.4 |
| 20260906023411 | 65 | 339 | 0.0 | 0.0 | 0.00 | 0.00 | 0.00 | 49 | 1013.2 |
| 20260906022350 | 66 | 339 | 0.0 | 0.0 | 0.00 | 0.00 | 0.00 | 47 | 1013.2 |
| 20260906021407 | 66 | 339 | 0.0 | 0.0 | 0.00 | 0.00 | 0.00 | 46 | 1013.1 |
| 20260906020408 | 67 | 339 | 0.0 | 0.0 | 0.00 | 0.00 | 0.00 | 44 | 1013.0 |
| 20260906014241 | 70 | 338 | 0.0 | 0.0 | 0.00 | 0.00 | 0.00 | 41 | 1012.8 |
| 20260906013222 | 71 | 338 | 0.0 | 0.0 | 0.00 | 0.00 | 0.00 | 40 | 1012.8 |
| 20260906012204 | 72 | 338 | 0.0 | 0.0 | 0.00 | 0.00 | 0.00 | 37 | 1012.6 |
| 20260906010023 | 74 | 338 | 0.0 | 2.0 | 0.00 | 0.00 | 0.00 | 39 | 1012.7 |
| 20260906003828 | 75 | 338 | 0.0 | 2.0 | 0.00 | 0.00 | 0.00 | 39 | 1012.6 |
| 20260906002804 | 74 | 338 | 0.0 | 3.0 | 0.00 | 0.00 | 0.00 | 38 | 1012.5 |
| 20260906001823 | 74 | 338 | 0.0 | 3.0 | 0.00 | 0.00 | 0.00 | 40 | 1012.5 |
| 20260906000758 | 74 | 338 | 0.0 | 7.0 | 0.00 | 0.00 | 0.00 | 39 | 1012.5 |
| 20260905235734 | 74 | 338 | 0.0 | 2.0 | 0.00 | 0.00 | 0.00 | 39 | 1012.5 |
| 20260905234708 | 75 | 339 | 0.0 | 0.0 | 0.00 | 0.00 | 0.00 | 39 | 1012.4 |
| 20260905233720 | 75 | 232 | 0.0 | 7.0 | 0.00 | 0.00 | 0.00 | 40 | 1012.4 |
| 20260905232729 | 75 | 106 | 1.0 | 5.0 | 0.00 | 0.00 | 0.00 | 40 | 1012.2 |
| 20260905231729 | 75 | 92 | 0.0 | 2.0 | 0.00 | 0.00 | 0.00 | 40 | 1012.4 |
| 20260905230732 | 76 | 86 | 0.0 | 6.0 | 0.00 | 0.00 | 0.00 | 40 | 1012.4 |
| 20260905225744 | 75 | 97 | 0.0 | 0.0 | 0.00 | 0.00 | 0.00 | 41 | 1012.5 |
| 20260905224736 | 75 | 228 | 1.0 | 8.0 | 0.00 | 0.00 | 0.00 | 40 | 1012.5 |
| 20260905223716 | 76 | 222 | 0.0 | 3.0 | 0.00 | 0.00 | 0.00 | 40 | 1012.6 |
| 20260905222705 | 76 | 211 | 0.0 | 4.0 | 0.00 | 0.00 | 0.00 | 43 | 1012.5 |
| 20260905221652 | 75 | 211 | 0.0 | 4.0 | 0.00 | 0.00 | 0.00 | 41 | 1012.6 |
| 20260905215548 | 75 | 34 | 0.0 | 1.0 | 0.00 | 0.00 | 0.00 | 40 | 1012.6 |
| 20260905214604 | 75 | 20 | 0.0 | 1.0 | 0.00 | 0.00 | 0.00 | 42 | 1012.7 |
| 20260905213620 | 75 | 13 | 1.0 | 7.0 | 0.00 | 0.00 | 0.00 | 42 | 1012.8 |
| 20260905212600 | 76 | 30 | 1.0 | 7.0 | 0.00 | 0.00 | 0.00 | 39 | 1012.9 |
| 20260905211544 | 74 | 30 | 0.0 | 5.0 | 0.00 | 0.00 | 0.00 | 42 | 1013.1 |
| 20260905210603 | 74 | 60 | 0.0 | 5.0 | 0.00 | 0.00 | 0.00 | 41 | 1013.4 |
| 20260905205621 | 75 | 19 | 1.0 | 5.0 | 0.00 | 0.00 | 0.00 | 42 | 1013.5 |
| 20260905204617 | 75 | 41 | 0.0 | 3.0 | 0.00 | 0.00 | 0.00 | 42 | 1013.6 |
| 20260905202540 | 73 | 14 | 0.0 | 3.0 | 0.00 | 0.00 | 0.00 | 44 | 1013.8 |
| 20260905201556 | 73 | 5 | 1.0 | 6.0 | 0.00 | 0.00 | 0.00 | 46 | 1013.9 |
| 20260905200553 | 72 | 346 | 0.0 | 6.0 | 0.00 | 0.00 | 0.00 | 45 | 1014.1 |
| 20260905195612 | 72 | 345 | 1.0 | 5.0 | 0.00 | 0.00 | 0.00 | 46 | 1014.0 |
| 20260905194541 | 71 | 339 | 0.0 | 3.0 | 0.00 | 0.00 | 0.00 | 47 | 1014.1 |
| 20260905193555 | 71 | 339 | 1.0 | 0.0 | 0.00 | 0.00 | 0.00 | 48 | 1014.1 |
| 20260905192525 | 69 | 340 | 1.0 | 6.0 | 0.00 | 0.00 | 0.00 | 46 | 1014.3 |
| 20260905185246 | 69 | 350 | 0.0 | 0.0 | 0.00 | 0.00 | 0.00 | 49 | 1014.6 |
| 20260905184213 | 69 | 342 | 0.0 | 4.0 | 0.00 | 0.00 | 0.00 | 49 | 1014.6 |
| 20260905183237 | 68 | 340 | 0.0 | 2.0 | 0.00 | 0.00 | 0.00 | 49 | 1014.7 |
| 20260905182221 | 69 | 342 | 1.0 | 3.0 | 0.00 | 0.00 | 0.00 | 50 | 1014.7 |
| 20260905181211 | 68 | 340 | 0.0 | 1.0 | 0.00 | 0.00 | 0.00 | 52 | 1014.7 |
| 20260905180152 | 67 | 328 | 0.0 | 3.0 | 0.00 | 0.00 | 0.00 | 52 | 1014.9 |
| 20260905175203 | 66 | 328 | 0.0 | 3.0 | 0.00 | 0.00 | 0.00 | 52 | 1014.9 |
| 20260905174140 | 66 | 328 | 0.0 | 4.0 | 0.00 | 0.00 | 0.00 | 52 | 1015.1 |
| 20260905172016 | 64 | 332 | 1.0 | 6.0 | 0.00 | 0.00 | 0.00 | 57 | 1015.2 |
| 20260905171013 | 62 | 332 | 0.0 | 4.0 | 0.00 | 0.00 | 0.00 | 57 | 1015.2 |
| 20260905165950 | 61 | 332 | 0.0 | 1.0 | 0.00 | 0.00 | 0.00 | 59 | 1015.4 |
| 20260905164954 | 60 | 332 | 0.0 | 2.0 | 0.00 | 0.00 | 0.00 | 61 | 1015.3 |
| 20260905161625 | 58 | 332 | 0.0 | 4.0 | 0.00 | 0.00 | 0.00 | 64 | 1015.4 |
| 20260905160557 | 57 | 332 | 0.0 | 3.0 | 0.00 | 0.00 | 0.00 | 68 | 1015.2 |
| 20260905155534 | 56 | 332 | 0.0 | 0.0 | 0.00 | 0.00 | 0.00 | 69 | 1015.2 |
| 20260905153426 | 53 | 332 | 0.0 | 0.0 | 0.00 | 0.00 | 0.00 | 73 | 1015.2 |
| 20260905152357 | 53 | 332 | 0.0 | 0.0 | 0.00 | 0.00 | 0.00 | 76 | 1015.2 |
| 20260905151405 | 52 | 332 | 0.0 | 0.0 | 0.00 | 0.00 | 0.00 | 77 | 1015.2 |
| 20260905150348 | 51 | 332 | 0.0 | 0.0 | 0.00 | 0.00 | 0.00 | 77 | 1015.3 |
| 20260905145316 | 50 | 332 | 0.0 | 0.0 | 0.00 | 0.00 | 0.00 | 77 | 1015.2 |
| 20260905144320 | 49 | 332 | 0.0 | 0.0 | 0.00 | 0.00 | 0.00 | 80 | 1015.1 |
| 20260905143248 | 48 | 335 | 0.0 | 0.0 | 0.00 | 0.00 | 0.00 | 82 | 1015.1 |
| 20260905142216 | 47 | 335 | 0.0 | 0.0 | 0.00 | 0.00 | 0.00 | 83 | 1015.0 |
| 20260905141224 | 46 | 356 | 0.0 | 0.0 | 0.00 | 0.00 | 0.00 | 82 | 1014.8 |
| 20260905140157 | 46 | 356 | 0.0 | 0.0 | 0.00 | 0.00 | 0.00 | 82 | 1014.6 |
| 20260905135211 | 45 | 356 | 0.0 | 0.0 | 0.00 | 0.00 | 0.00 | 82 | 1014.6 |
| 20260905134137 | 45 | 356 | 0.0 | 0.0 | 0.00 | 0.00 | 0.00 | 82 | 1014.2 |
| 20260905133125 | 45 | 356 | 0.0 | 0.0 | 0.00 | 0.00 | 0.00 | 81 | 1014.1 |
| 20260905132102 | 45 | 356 | 0.0 | 0.0 | 0.00 | 0.00 | 0.00 | 80 | 1014.1 |
| 20260905131047 | 45 | 356 | 0.0 | 0.0 | 0.00 | 0.00 | 0.00 | 80 | 1013.9 |
| 20260905130033 | 46 | 356 | 0.0 | 0.0 | 0.00 | 0.00 | 0.00 | 80 | 1013.5 |
| 20260905125008 | 46 | 340 | 0.0 | 0.0 | 0.00 | 0.00 | 0.00 | 79 | 1013.2 |
| 20260905124022 | 46 | 340 | 0.0 | 0.0 | 0.00 | 0.00 | 0.00 | 78 | 1013.2 |
| 20260905122959 | 47 | 339 | 0.0 | 0.0 | 0.00 | 0.00 | 0.00 | 77 | 1013.0 |
| 20260905121959 | 47 | 340 | 0.0 | 0.0 | 0.00 | 0.00 | 0.00 | 76 | 1012.9 |
| 20260905121004 | 47 | 339 | 0.0 | 0.0 | 0.00 | 0.00 | 0.00 | 76 | 1013.0 |
| 20260905115940 | 48 | 339 | 0.0 | 0.0 | 0.00 | 0.00 | 0.00 | 75 | 1013.2 |
| 20260905114957 | 48 | 338 | 0.0 | 0.0 | 0.00 | 0.00 | 0.00 | 75 | 1013.4 |
| 20260905114000 | 48 | 338 | 0.0 | 0.0 | 0.00 | 0.00 | 0.00 | 73 | 1013.5 |
| 20260905113013 | 49 | 337 | 0.0 | 0.0 | 0.00 | 0.00 | 0.00 | 73 | 1013.3 |
| 20260905112012 | 49 | 337 | 0.0 | 0.0 | 0.00 | 0.00 | 0.00 | 72 | 1013.0 |
| 20260905105853 | 50 | 337 | 0.0 | 0.0 | 0.00 | 0.00 | 0.00 | 70 | 1012.4 |
| 20260905102550 | 51 | 336 | 0.0 | 0.0 | 0.00 | 0.00 | 0.00 | 66 | 1011.5 |
| 20260905100427 | 53 | 334 | 0.0 | 0.0 | 0.00 | 0.00 | 0.00 | 63 | 1011.2 |
| 20260905094211 | 54 | 334 | 0.0 | 0.0 | 0.00 | 0.00 | 0.00 | 59 | 1010.9 |
| 20260905093148 | 55 | 333 | 0.0 | 0.0 | 0.00 | 0.00 | 0.00 | 58 | 1011.0 |
| 20260905092155 | 56 | 333 | 0.0 | 0.0 | 0.00 | 0.00 | 0.00 | 57 | 1011.1 |
| 20260905091202 | 56 | 333 | 0.0 | 2.0 | 0.00 | 0.00 | 0.00 | 57 | 1011.2 |
| 20260905090155 | 57 | 332 | 0.0 | 0.0 | 0.00 | 0.00 | 0.00 | 56 | 1011.1 |
| 20260905085137 | 57 | 332 | 0.0 | 0.0 | 0.00 | 0.00 | 0.00 | 57 | 1011.1 |
| 20260905084110 | 57 | 332 | 0.0 | 3.0 | 0.00 | 0.00 | 0.00 | 56 | 1011.4 |
| 20260905083123 | 57 | 332 | 0.0 | 0.0 | 0.00 | 0.00 | 0.00 | 56 | 1011.1 |
| 20260905082127 | 57 | 332 | 0.0 | 0.0 | 0.00 | 0.00 | 0.00 | 56 | 1011.0 |
| 20260905081119 | 58 | 332 | 0.0 | 0.0 | 0.00 | 0.00 | 0.00 | 56 | 1010.8 |
| 20260905080106 | 58 | 332 | 0.0 | 0.0 | 0.00 | 0.00 | 0.00 | 56 | 1011.4 |
| 20260905075111 | 57 | 332 | 1.0 | 7.0 | 0.00 | 0.00 | 0.00 | 55 | 1011.7 |
| 20260905074118 | 57 | 332 | 0.0 | 2.0 | 0.00 | 0.00 | 0.00 | 56 | 1011.5 |
| 20260905073051 | 57 | 332 | 0.0 | 0.0 | 0.00 | 0.00 | 0.00 | 56 | 1011.2 |
| 20260905072046 | 57 | 332 | 0.0 | 0.0 | 0.00 | 0.00 | 0.00 | 56 | 1011.0 |
| 20260905071058 | 57 | 332 | 0.0 | 3.0 | 0.00 | 0.00 | 0.00 | 56 | 1011.2 |
| 20260905070049 | 57 | 332 | 0.0 | 2.0 | 0.00 | 0.00 | 0.00 | 57 | 1011.0 |
| 20260905065034 | 57 | 332 | 0.0 | 0.0 | 0.00 | 0.00 | 0.00 | 60 | 1010.8 |
| 20260905064018 | 57 | 332 | 0.0 | 0.0 | 0.00 | 0.00 | 0.00 | 57 | 1011.0 |
| 20260905063006 | 57 | 332 | 0.0 | 0.0 | 0.00 | 0.00 | 0.00 | 58 | 1010.3 |
| 20260905061952 | 58 | 332 | 0.0 | 0.0 | 0.00 | 0.00 | 0.00 | 55 | 1010.8 |
| 20260905060935 | 58 | 332 | 0.0 | 0.0 | 0.00 | 0.00 | 0.00 | 55 | 1010.5 |
| 20260905055936 | 58 | 332 | 0.0 | 1.0 | 0.00 | 0.00 | 0.00 | 55 | 1010.0 |
| 20260905055000 | 57 | 332 | 0.0 | 3.0 | 0.00 | 0.00 | 0.00 | 56 | 1010.5 |
| 20260905053933 | 57 | 332 | 0.0 | 0.0 | 0.00 | 0.00 | 0.00 | 59 | 1009.8 |
| 20260905052859 | 57 | 332 | 0.0 | 0.0 | 0.00 | 0.00 | 0.00 | 59 | 1009.7 |
| 20260905051913 | 57 | 332 | 0.0 | 2.0 | 0.00 | 0.00 | 0.00 | 59 | 1009.6 |
| 20260905050924 | 57 | 332 | 0.0 | 0.0 | 0.00 | 0.00 | 0.00 | 60 | 1009.3 |
| 20260905045907 | 58 | 332 | 0.0 | 0.0 | 0.00 | 0.00 | 0.00 | 58 | 1009.6 |
| 20260905043759 | 59 | 332 | 0.0 | 2.0 | 0.00 | 0.00 | 0.00 | 56 | 1009.4 |
| 20260905042756 | 60 | 332 | 0.0 | 0.0 | 0.00 | 0.00 | 0.00 | 55 | 1008.9 |
| 20260905041745 | 61 | 332 | 0.0 | 1.0 | 0.00 | 0.00 | 0.00 | 51 | 1008.9 |
| 20260905040712 | 62 | 332 | 0.0 | 0.0 | 0.00 | 0.00 | 0.00 | 50 | 1009.0 |
| 20260905035735 | 63 | 332 | 0.0 | 0.0 | 0.00 | 0.00 | 0.00 | 50 | 1008.9 |
| 20260905034723 | 64 | 332 | 0.0 | 0.0 | 0.00 | 0.00 | 0.00 | 46 | 1008.7 |
| 20260905033712 | 65 | 332 | 0.0 | 0.0 | 0.00 | 0.00 | 0.00 | 45 | 1008.4 |
| 20260905032707 | 65 | 332 | 0.0 | 1.0 | 0.00 | 0.00 | 0.00 | 44 | 1008.1 |
| 20260905031646 | 66 | 332 | 0.0 | 2.0 | 0.00 | 0.00 | 0.00 | 44 | 1008.0 |
| 20260905030637 | 66 | 332 | 0.0 | 0.0 | 0.00 | 0.00 | 0.00 | 43 | 1008.0 |